Location: Mount Nemo Observatory
(43.4112°N, 79.8736°W)
Time: 16:27:31
(UTC-05:00)

N. Korean satellite - Visible Passes

Search period start: 23 January 2018 00:00
Search period end: 02 February 2018 00:00
Orbit: 458 x 515 km, 97.2° (Epoch: 23 January)

Date Brightness Start Highest point End Pass type
(mag) Time Alt. Az. Time Alt. Az. Time Alt. Az.
23 Jan 6.4 07:10:51 10° N 07:14:18 81° WNW 07:17:46 10° SSW visible
23 Jan 6.9 17:48:01 10° SE 17:51:24 41° ENE 17:54:44 10° N visible
23 Jan 10.1 19:23:35 10° WSW 19:25:06 12° W 19:26:36 10° WNW visible
24 Jan 7.7 06:47:16 10° NNE 06:50:37 46° E 06:53:58 10° S visible
24 Jan 9.2 18:58:22 10° SSW 19:01:16 23° W 19:04:08 10° NW visible
25 Jan 9.2 06:24:02 10° NE 06:26:51 23° E 06:29:40 10° SSE visible
25 Jan 7.7 18:34:04 10° S 18:37:29 45° W 18:40:54 10° NNW visible
26 Jan 10.1 06:01:33 10° ENE 06:03:00 12° E 06:04:27 10° ESE visible
26 Jan 6.4 18:10:16 10° SSE 18:13:48 84° ENE 18:17:19 10° N visible
27 Jan 10.1 19:22:21 10° WSW 19:23:52 12° W 19:25:24 10° WNW visible
28 Jan 7.8 06:46:02 10° NNE 06:49:23 45° E 06:52:44 10° S visible
28 Jan 9.1 18:57:09 10° SSW 19:00:01 23° W 19:02:53 10° NW visible
29 Jan 9.3 06:22:47 10° NE 06:25:36 23° E 06:28:26 10° SSE visible
29 Jan 7.7 18:32:51 10° S 18:36:15 46° W 18:39:38 10° NNW visible
30 Jan 10.1 06:00:20 10° ENE 06:01:45 12° E 06:03:09 10° ESE visible
30 Jan 6.4 18:09:02 10° SSE 18:12:33 82° ENE 18:16:02 10° N visible
31 Jan 10.1 19:21:02 10° WSW 19:22:36 12° W 19:24:09 10° WNW visible
01 Feb 7.9 06:44:44 10° NNE 06:48:06 44° E 06:51:29 10° S visible
01 Feb 9.1 18:55:53 10° SSW 18:58:44 24° W 19:01:36 10° NW visible
